Location: Menands
(42.6920°N, 73.7246°W)
Time: 04:52:19
(UTC+00:00)

YAOGAN 3 - Visible Passes

Search period start: 14 May 2026 00:00
Search period end: 24 May 2026 00:00
Orbit: 595 x 597 km, 97.8° (Epoch: 13 May)

Date Brightness Start Highest point End Pass type
(mag) Time Alt. Az. Time Alt. Az. Time Alt. Az.
14 May 7.0 00:49:05 10° SW 00:52:18 21° W 00:55:33 10° NW visible
15 May 7.2 00:59:29 10° SW 01:02:13 17° W 01:04:57 10° NW visible
16 May 7.4 01:10:07 10° WSW 01:12:08 13° W 01:14:09 10° WNW visible
17 May 7.8 01:21:46 10° W 01:22:04 10° W 01:22:22 10° W visible
